FW8871 Weather Reports


Display with metric or nautical units.
time (UTC)temp
F
wind
direction
speed
MPH
gust
MPH
rain 1hr
in
rain 24hr
in
rain mn
in
humidity
%
barometer
mb
20260507193054 73 259 7.0 13.0 0.00 0.01 0.01 24 1014.0
20260507192548 73 270 9.0 13.0 0.00 0.01 0.01 26 1014.0
20260507192052 73 302 9.0 13.0 0.00 0.01 0.01 24 1013.9
20260507191556 73 271 7.0 15.0 0.00 0.01 0.01 27 1014.1
20260507191048 72 284 7.0 15.0 0.00 0.01 0.01 28 1014.1
20260507190549 72 248 10.0 15.0 0.00 0.01 0.01 26 1014.1
20260507190055 72 275 10.0 15.0 0.00 0.01 0.01 27 1014.3
20260507185548 72 271 8.0 14.0 0.00 0.02 0.01 31 1014.3
20260507185045 71 280 9.0 17.0 0.00 0.02 0.01 31 1014.4
20260507184603 71 276 10.0 17.0 0.00 0.02 0.01 31 1014.6
20260507184046 70 289 10.0 16.0 0.00 0.02 0.01 29 1014.7
20260507183548 70 285 9.0 15.0 0.00 0.02 0.01 33 1014.8
20260507183055 70 293 11.0 19.0 0.00 0.02 0.01 27 1014.8
20260507182547 70 253 10.0 19.0 0.00 0.02 0.01 33 1015.1
20260507182048 70 258 12.0 19.0 0.00 0.02 0.01 33 1015.2
20260507181603 69 265 10.0 19.0 0.00 0.02 0.01 35 1015.3
20260507181047 69 242 10.0 18.0 0.00 0.02 0.01 36 1015.3
20260507180546 68 264 12.0 18.0 0.00 0.02 0.01 36 1015.3
20260507180057 68 278 13.0 22.0 0.00 0.02 0.01 37 1015.3
20260507175551 68 238 10.0 22.0 0.00 0.03 0.01 38 1015.3
20260507175046 67 278 13.0 22.0 0.00 0.03 0.01 37 1015.4
20260507174557 67 271 13.0 20.0 0.00 0.03 0.01 37 1015.4
20260507174047 67 290 12.0 20.0 0.00 0.03 0.01 42 1015.4
20260507173545 66 275 12.0 21.0 0.00 0.03 0.01 41 1015.5
20260507173058 66 288 13.0 21.0 0.00 0.03 0.01 40 1015.6
20260507172549 66 290 13.0 21.0 0.00 0.03 0.01 40 1015.6
20260507172049 66 259 13.0 20.0 0.00 0.03 0.01 41 1015.6
20260507171602 65 289 11.0 20.0 0.00 0.03 0.01 44 1015.8
20260507171048 65 240 12.0 20.0 0.00 0.03 0.01 44 1015.7
20260507170548 65 281 14.0 19.0 0.00 0.03 0.01 44 1015.8
20260507170055 64 262 11.0 17.0 0.00 0.03 0.01 47 1015.8
20260507165546 64 264 12.0 19.0 0.00 0.06 0.01 46 1016.0
20260507165046 64 264 11.0 19.0 0.00 0.06 0.01 48 1016.1
20260507164553 63 257 13.0 20.0 0.00 0.06 0.01 47 1016.2
20260507164054 62 266 15.0 21.0 0.00 0.06 0.01 46 1016.2
20260507163546 62 282 13.0 21.0 0.00 0.06 0.01 49 1016.2
20260507163056 62 259 12.0 20.0 0.00 0.06 0.01 48 1016.4
20260507162549 62 277 13.0 21.0 0.00 0.06 0.01 49 1016.3
20260507162049 61 262 13.0 21.0 0.00 0.06 0.01 50 1016.3
20260507161558 61 282 15.0 21.0 0.00 0.06 0.01 48 1016.4
20260507161045 61 261 15.0 21.0 0.00 0.06 0.01 49 1016.4
20260507160549 61 255 14.0 21.0 0.00 0.06 0.01 49 1016.4
20260507160055 60 234 15.0 21.0 0.00 0.06 0.01 50 1016.5
20260507155548 60 258 14.0 21.0 0.00 0.07 0.01 49 1016.6
20260507155047 60 297 12.0 18.0 0.00 0.07 0.01 52 1016.6
20260507154601 59 253 12.0 19.0 0.00 0.07 0.01 54 1016.6
20260507154047 58 269 15.0 19.0 0.00 0.07 0.01 52 1016.6
20260507153546 58 248 12.0 17.0 0.00 0.07 0.01 55 1016.6
20260507153100 57 230 12.0 18.0 0.00 0.07 0.01 55 1016.6
20260507152547 56 269 13.0 18.0 0.00 0.07 0.01 57 1016.7
20260507152048 55 237 13.0 18.0 0.00 0.07 0.01 59 1016.7
20260507151550 55 256 11.0 18.0 0.00 0.07 0.01 63 1016.9
20260507151047 54 240 11.0 17.0 0.00 0.07 0.01 65 1017.0
20260507150546 53 246 13.0 17.0 0.00 0.07 0.01 65 1016.9
20260507150052 52 267 11.0 17.0 0.00 0.07 0.01 71 1016.9
20260507145549 51 233 13.0 16.0 0.00 0.08 0.01 70 1016.9
20260507145048 51 259 10.0 15.0 0.00 0.08 0.01 71 1017.0
20260507144553 50 246 9.0 15.0 0.00 0.08 0.01 74 1017.0
20260507144047 50 231 12.0 15.0 0.00 0.08 0.01 73 1017.1
20260507143547 49 255 12.0 15.0 0.00 0.08 0.01 75 1017.1
20260507143050 48 217 11.0 16.0 0.00 0.08 0.01 77 1017.1
20260507142547 48 238 11.0 16.0 0.00 0.08 0.01 78 1017.1
20260507142046 47 236 12.0 17.0 0.00 0.08 0.01 78 1017.2
20260507141552 46 250 12.0 17.0 0.00 0.08 0.01 81 1017.3
20260507141048 46 236 12.0 17.0 0.00 0.08 0.01 81 1017.4
20260507140549 45 243 11.0 16.0 0.00 0.08 0.01 83 1017.4
20260507140053 45 233 9.0 15.0 0.00 0.08 0.01 85 1017.5
20260507135546 44 259 10.0 14.0 0.00 0.09 0.01 86 1017.5
20260507135046 43 250 9.0 15.0 0.00 0.09 0.01 88 1017.5
20260507134554 43 245 11.0 15.0 0.00 0.09 0.01 88 1017.6
20260507134046 42 233 11.0 15.0 0.00 0.09 0.01 89 1017.7
20260507133549 41 254 11.0 15.0 0.00 0.09 0.01 90 1017.7
20260507133052 41 239 10.0 14.0 0.00 0.09 0.01 90 1017.8
20260507132549 40 252 10.0 15.0 0.00 0.09 0.01 91 1017.9
20260507132053 40 257 11.0 15.0 0.00 0.09 0.01 91 1017.9
20260507131600 39 246 7.0 14.0 0.00 0.09 0.01 92 1018.0
20260507131048 39 250 11.0 14.0 0.00 0.09 0.01 92 1018.0
20260507130547 39 239 9.0 12.0 0.00 0.09 0.01 92 1018.0
20260507130107 38 252 9.0 12.0 0.00 0.09 0.01 92 1018.1
20260507125548 38 244 9.0 15.0 0.00 0.09 0.01 92 1018.2
20260507125046 38 240 9.0 15.0 0.00 0.09 0.01 92 1018.2
20260507124555 38 239 9.0 15.0 0.00 0.09 0.01 92 1018.0
20260507124048 37 238 10.0 15.0 0.00 0.09 0.01 92 1018.0
20260507123548 37 204 10.0 14.0 0.00 0.09 0.01 93 1018.1
20260507123054 37 238 9.0 14.0 0.00 0.09 0.01 93 1018.0
20260507122547 36 245 9.0 14.0 0.00 0.09 0.01 93 1018.0
20260507122048 36 250 8.0 12.0 0.00 0.09 0.01 93 1018.0
20260507121607 36 253 8.0 14.0 0.00 0.09 0.01 93 1018.1
20260507121048 36 238 8.0 14.0 0.01 0.09 0.01 93 1018.0
20260507120550 36 238 9.0 12.0 0.01 0.09 0.01 93 1018.0
20260507115549 36 226 9.0 13.0 0.01 0.10 0.01 93 1018.0
20260507115048 36 238 9.0 13.0 0.01 0.10 0.01 93 1018.0
20260507114609 36 234 8.0 14.0 0.01 0.10 0.01 93 1018.0
20260507114048 36 212 10.0 15.0 0.01 0.10 0.01 93 1018.1
20260507113551 36 258 8.0 15.0 0.01 0.10 0.01 93 1018.1
20260507113052 36 260 10.0 14.0 0.01 0.10 0.01 93 1018.2
20260507112551 36 236 9.0 14.0 0.01 0.10 0.01 93 1018.2
20260507112051 36 226 10.0 15.0 0.01 0.10 0.01 93 1018.2
20260507111551 36 232 9.0 15.0 0.01 0.10 0.01 93 1018.3
20260507111050 36 248 10.0 15.0 0.00 0.09 0.00 93 1018.3
20260507110548 36 231 9.0 15.0 0.00 0.09 0.00 93 1018.4
20260507110055 36 242 9.0 13.0 0.00 0.09 0.00 93 1018.4
20260507105547 37 231 9.0 13.0 0.00 0.09 0.00 93 1018.4
20260507105048 36 231 9.0 12.0 0.00 0.09 0.00 93 1018.3
20260507104552 36 236 9.0 12.0 0.00 0.09 0.00 93 1018.3
20260507104048 36 221 8.0 12.0 0.00 0.09 0.00 93 1018.3
20260507103549 36 236 7.0 12.0 0.00 0.09 0.00 93 1018.3
20260507103054 35 240 7.0 12.0 0.00 0.09 0.00 93 1018.4
20260507102547 35 233 7.0 11.0 0.00 0.09 0.00 93 1018.5
20260507102049 36 229 7.0 11.0 0.00 0.09 0.00 93 1018.6
20260507101552 36 229 7.0 9.0 0.00 0.09 0.00 93 1018.6
20260507101048 36 239 6.0 10.0 0.00 0.09 0.00 93 1018.7
20260507100548 36 235 7.0 10.0 0.00 0.09 0.00 93 1018.8
20260507100048 36 224 6.0 10.0 0.00 0.09 0.00 93 1018.9
20260507095548 36 239 7.0 9.0 0.00 0.11 0.00 93 1019.0
20260507095048 36 231 6.0 8.0 0.00 0.11 0.00 93 1019.1
20260507094554 36 231 5.0 8.0 0.00 0.11 0.00 93 1019.2
20260507094048 36 233 5.0 8.0 0.00 0.11 0.00 93 1019.2
20260507093548 36 243 5.0 8.0 0.00 0.11 0.00 93 1019.2
20260507093056 36 232 5.0 9.0 0.00 0.11 0.00 93 1019.2
20260507092548 36 228 6.0 9.0 0.00 0.11 0.00 93 1019.2
20260507092048 36 244 5.0 8.0 0.00 0.11 0.00 93 1019.2
20260507091556 36 233 5.0 8.0 0.00 0.11 0.00 93 1019.2
20260507091048 36 224 5.0 8.0 0.00 0.11 0.00 93 1019.3
20260507090547 36 233 6.0 8.0 0.00 0.11 0.00 93 1019.4
20260507090057 36 231 5.0 8.0 0.00 0.11 0.00 93 1019.5
20260507085548 36 242 5.0 8.0 0.00 0.11 0.00 93 1019.5
20260507085047 36 228 5.0 7.0 0.00 0.11 0.00 93 1019.5
20260507084554 36 238 5.0 7.0 0.00 0.11 0.00 93 1019.6
20260507084050 36 227 4.0 7.0 0.00 0.11 0.00 93 1019.6
20260507083548 36 223 4.0 6.0 0.00 0.11 0.00 93 1019.6
20260507083053 36 236 5.0 6.0 0.00 0.11 0.00 93 1019.6
20260507082548 36 229 4.0 6.0 0.00 0.11 0.00 93 1019.7
20260507082051 36 239 3.0 5.0 0.00 0.11 0.00 93 1019.7
20260507081605 36 217 3.0 5.0 0.00 0.11 0.00 93 1019.8
20260507081048 36 229 2.0 4.0 0.00 0.11 0.00 93 1019.8
20260507080553 36 245 3.0 4.0 0.00 0.11 0.00 93 1020.0
20260507075549 36 246 3.0 4.0 0.00 0.12 0.00 92 1020.1
20260507075048 37 261 3.0 5.0 0.00 0.12 0.00 92 1020.2
20260507074607 37 242 3.0 5.0 0.00 0.12 0.00 93 1020.2
20260507074048 37 246 4.0 5.0 0.00 0.12 0.00 93 1020.2
20260507073549 37 262 3.0 4.0 0.00 0.12 0.00 92 1020.3
20260507073053 37 239 2.0 4.0 0.00 0.12 0.00 92 1020.4
20260507072549 37 251 2.0 4.0 0.00 0.12 0.00 92 1020.5
20260507072048 38 236 3.0 4.0 0.00 0.12 0.00 92 1020.5
20260507071553 38 259 3.0 4.0 0.00 0.12 0.00 92 1020.6
20260507071048 38 266 3.0 4.0 0.00 0.12 0.00 92 1020.7
20260507070549 39 241 3.0 5.0 0.00 0.12 0.00 92 1020.8
20260507070054 39 249 4.0 6.0 0.00 0.12 0.00 92 1020.8
20260507065548 39 253 4.0 6.0 0.00 0.14 0.00 92 1020.9
20260507065047 39 252 4.0 6.0 0.00 0.14 0.00 92 1020.8
20260507064557 39 236 4.0 6.0 0.00 0.14 0.00 92 1020.9
20260507064049 39 246 3.0 5.0 0.00 0.14 0.00 92 1021.0
20260507063548 39 248 3.0 5.0 0.00 0.14 0.00 92 1021.1
20260507063051 39 238 3.0 5.0 0.00 0.14 0.00 92 1021.0
20260507062548 39 248 4.0 5.0 0.00 0.14 0.00 92 1021.0
20260507062051 40 248 3.0 5.0 0.00 0.14 0.00 92 1021.0
20260507061601 40 238 4.0 5.0 0.00 0.14 0.00 92 1021.0
20260507061049 40 266 4.0 5.0 0.00 0.14 0.00 91 1021.1
20260507060548 40 262 3.0 5.0 0.00 0.14 0.00 91 1021.1
20260507060056 41 257 3.0 5.0 0.00 0.14 0.00 91 1021.1
20260507055550 41 255 4.0 5.0 0.00 0.15 0.00 91 1021.3
20260507055052 42 0 0.0 0.0 0.00 0.15 0.00 91 1021.3
20260507054636 42 0 0.0 0.0 0.00 0.15 0.00 92 1021.3
20260507054048 42 0 0.0 0.0 0.00 0.15 0.00 92 1021.3
20260507053550 42 0 0.0 0.0 0.00 0.15 0.00 91 1021.3
20260507053055 42 0 0.0 3.0 0.00 0.15 0.00 91 1021.3
20260507052547 42 0 0.0 4.0 0.00 0.15 0.00 91 1021.1
20260507052047 43 0 3.0 4.0 0.00 0.15 0.00 91 1021.1
20260507051552 43 257 3.0 6.0 0.00 0.15 0.00 91 1021.1
20260507051050 43 269 4.0 6.0 0.00 0.15 0.00 91 1021.3
20260507050549 43 273 4.0 6.0 0.00 0.15 0.00 91 1021.3
20260507050057 43 273 4.0 6.0 0.00 0.15 0.00 91 1021.3
20260507045548 43 264 3.0 6.0 0.00 0.15 0.15 91 1021.4
20260507045047 44 250 3.0 4.0 0.00 0.15 0.15 91 1021.3
20260507044600 44 250 2.0 5.0 0.00 0.15 0.15 91 1021.4
20260507044048 44 250 3.0 5.0 0.00 0.15 0.15 91 1021.4
20260507043548 44 264 4.0 5.0 0.00 0.15 0.15 91 1021.5
20260507043054 44 266 2.0 4.0 0.00 0.15 0.15 91 1021.5
20260507042547 44 262 2.0 4.0 0.00 0.15 0.15 91 1021.7
20260507042047 44 262 3.0 4.0 0.00 0.15 0.15 91 1021.6
20260507041602 44 0 0.0 0.0 0.00 0.15 0.15 91 1021.5
20260507041048 44 0 0.0 1.0 0.00 0.15 0.15 91 1021.5
20260507040547 44 0 0.0 1.0 0.00 0.15 0.15 91 1021.5
20260507040058 44 275 0.0 2.0 0.00 0.15 0.15 91 1021.5
20260507035547 44 0 0.0 2.0 0.00 0.15 0.15 91 1021.5
20260507035047 44 0 0.0 2.0 0.00 0.15 0.15 90 1021.5
20260507034558 44 0 0.0 2.0 0.00 0.15 0.15 90 1021.6
20260507034047 44 0 0.0 2.0 0.00 0.15 0.15 90 1021.5
20260507033549 44 306 1.0 2.0 0.00 0.15 0.15 90 1021.5
20260507033056 44 314 1.0 2.0 0.00 0.15 0.15 90 1021.4
20260507032549 44 320 0.0 2.0 0.00 0.15 0.15 89 1021.4
20260507032051 44 0 1.0 2.0 0.00 0.15 0.15 88 1021.4
20260507031605 44 280 2.0 2.0 0.00 0.15 0.15 88 1021.4
20260507031050 44 270 2.0 2.0 0.00 0.15 0.15 88 1021.2
20260507030547 45 269 2.0 3.0 0.00 0.15 0.15 88 1021.1
20260507030057 45 274 2.0 3.0 0.00 0.15 0.15 88 1021.0
20260507025549 45 301 2.0 3.0 0.00 0.15 0.15 88 1021.0
20260507025048 45 287 2.0 3.0 0.00 0.15 0.15 87 1020.9
20260507024556 45 302 1.0 2.0 0.00 0.15 0.15 87 1020.7
20260507024049 45 300 1.0 2.0 0.00 0.15 0.15 87 1020.7
20260507023548 45 0 1.0 2.0 0.00 0.15 0.15 86 1020.5
20260507023103 45 332 1.0 2.0 0.00 0.15 0.15 86 1020.5
20260507022548 45 339 0.0 3.0 0.00 0.15 0.15 85 1020.4
20260507022048 45 314 2.0 4.0 0.00 0.15 0.15 85 1020.4
20260507021554 45 306 2.0 4.0 0.00 0.15 0.15 84 1020.2
20260507021050 45 304 2.0 3.0 0.00 0.15 0.15 84 1020.1
20260507020548 45 313 2.0 3.0 0.00 0.15 0.15 84 1020.1
20260507020056 46 302 2.0 4.0 0.00 0.15 0.15 84 1020.1
20260507015548 46 300 2.0 4.0 0.00 0.15 0.15 83 1020.1
20260507015047 46 299 2.0 4.0 0.00 0.15 0.15 83 1020.2
20260507014604 46 305 2.0 6.0 0.00 0.15 0.15 83 1020.2
20260507014048 46 308 3.0 6.0 0.00 0.15 0.15 83 1020.2
20260507013547 46 294 4.0 6.0 0.00 0.15 0.15 82 1020.2
20260507013053 46 293 2.0 6.0 0.00 0.15 0.15 82 1020.4
20260507012548 47 288 4.0 6.0 0.00 0.15 0.15 81 1020.3
20260507012048 47 289 4.0 6.0 0.00 0.15 0.15 80 1020.2
20260507011552 47 285 2.0 3.0 0.00 0.15 0.15 80 1020.0
20260507011048 47 285 1.0 3.0 0.00 0.15 0.15 80 1019.9
20260507010548 47 285 1.0 3.0 0.00 0.15 0.15 78 1019.9
20260507010054 47 0 0.0 3.0 0.00 0.15 0.15 77 1019.9
20260507005548 47 0 0.0 4.0 0.00 0.15 0.15 76 1019.8
20260507005048 47 0 0.0 4.0 0.00 0.15 0.15 75 1019.8
20260507004552 47 0 0.0 0.0 0.00 0.15 0.15 75 1019.8
20260507004048 48 0 0.0 0.0 0.00 0.15 0.15 75 1019.7
20260507003548 47 0 0.0 0.0 0.00 0.15 0.15 75 1019.7
20260507003055 47 0 0.0 0.0 0.00 0.15 0.15 74 1019.8
20260507002548 47 0 0.0 0.0 0.00 0.15 0.15 74 1019.8
20260507002050 47 0 0.0 0.0 0.00 0.15 0.15 74 1019.8
20260507001551 47 0 0.0 2.0 0.00 0.15 0.15 74 1019.7
20260507001046 47 0 0.0 3.0 0.00 0.15 0.15 73 1019.8
20260507000552 48 0 1.0 3.0 0.00 0.15 0.15 74 1019.9
20260507000051 48 0 0.0 2.0 0.00 0.15 0.15 74 1019.8
20260506235547 48 0 0.0 2.0 0.00 0.15 0.15 74 1019.6
20260506235050 48 122 1.0 2.0 0.00 0.15 0.15 75 1019.6
20260506234554 48 0 0.0 1.0 0.00 0.15 0.15 75 1019.5
20260506234047 48 0 0.0 1.0 0.00 0.15 0.15 75 1019.6
20260506233547 48 0 0.0 4.0 0.00 0.15 0.15 75 1019.6
20260506233108 48 0 0.0 4.0 0.00 0.15 0.15 74 1019.7
20260506232549 48 0 0.0 1.0 0.00 0.15 0.15 74 1019.7
20260506232047 48 0 0.0 2.0 0.00 0.15 0.15 74 1019.6
20260506231550 48 0 0.0 2.0 0.00 0.15 0.15 75 1019.4
20260506231046 48 0 0.0 1.0 0.00 0.15 0.15 76 1019.3
20260506230547 48 312 0.0 2.0 0.00 0.15 0.15 75 1019.3
20260506230053 48 0 0.0 7.0 0.00 0.15 0.15 76 1019.5
20260506225547 48 312 2.0 7.0 0.00 0.15 0.15 76 1019.7
20260506225046 48 6 2.0 3.0 0.00 0.15 0.15 75 1019.5
20260506224550 48 0 0.0 3.0 0.00 0.15 0.15 78 1019.4
20260506224052 48 4 0.0 3.0 0.00 0.15 0.15 78 1019.4
20260506223552 47 0 0.0 4.0 0.00 0.15 0.15 80 1019.3
20260506223050 47 83 2.0 4.0 0.00 0.15 0.15 80 1019.2
20260506222549 47 89 1.0 4.0 0.00 0.15 0.15 81 1019.3
20260506222049 47 88 2.0 4.0 0.00 0.15 0.15 81 1019.4
20260506221553 47 82 0.0 4.0 0.00 0.15 0.15 81 1019.4
20260506221048 47 60 0.0 4.0 0.00 0.15 0.15 81 1019.5
20260506220547 46 0 2.0 4.0 0.00 0.15 0.15 81 1019.5
20260506220052 46 0 1.0 4.0 0.00 0.15 0.15 81 1019.5
20260506215549 46 0 1.0 4.0 0.00 0.15 0.15 82 1019.5
20260506215047 46 70 1.0 4.0 0.00 0.15 0.15 82 1019.6
20260506214554 46 34 2.0 6.0 0.00 0.15 0.15 81 1019.5
20260506214047 46 105 2.0 7.0 0.00 0.15 0.15 81 1019.6
20260506213546 46 85 3.0 8.0 0.00 0.15 0.15 81 1019.5
20260506213111 46 84 6.0 8.0 0.00 0.15 0.15 81 1019.5
20260506212549 46 91 2.0 9.0 0.00 0.15 0.15 82 1019.5
20260506212049 47 66 4.0 9.0 0.00 0.15 0.15 80 1019.5
20260506211554 47 91 3.0 6.0 0.00 0.15 0.15 81 1019.6
20260506211050 47 91 0.0 2.0 0.00 0.15 0.15 82 1019.7
20260506210547 47 0 1.0 5.0 0.00 0.15 0.15 82 1019.6
20260506210054 47 0 0.0 6.0 0.00 0.15 0.15 82 1019.8
20260506205548 46 113 2.0 6.0 0.00 0.15 0.15 82 1020.0
20260506205047 47 20 1.0 6.0 0.00 0.15 0.15 82 1020.0
20260506204559 47 0 1.0 7.0 0.00 0.15 0.15 84 1020.0
20260506204046 47 72 3.0 7.0 0.00 0.15 0.15 84 1020.0
20260506203550 47 59 3.0 6.0 0.00 0.15 0.15 85 1020.0
20260506203053 47 97 2.0 6.0 0.00 0.15 0.15 87 1020.0
20260506202549 47 94 0.0 6.0 0.00 0.15 0.15 88 1020.0
20260506202047 46 103 0.0 7.0 0.00 0.15 0.15 88 1020.1
20260506201553 46 62 1.0 9.0 0.00 0.15 0.15 89 1020.2
20260506201046 46 78 5.0 9.0 0.00 0.15 0.15 89 1020.2
20260506200546 45 68 3.0 8.0 0.00 0.15 0.15 91 1020.2
20260506200053 45 76 3.0 7.0 0.00 0.15 0.15 92 1020.3
20260506195549 45 100 3.0 9.0 0.01 0.15 0.15 92 1020.2
20260506195049 45 73 2.0 9.0 0.01 0.15 0.15 93 1020.2
20260506194628 44 115 5.0 10.0 0.01 0.15 0.15 93 1020.2
20260506194054 44 82 4.0 10.0 0.01 0.15 0.15 93 1020.2
20260506193549 44 69 1.0 7.0 0.01 0.15 0.15 93 1020.2